Regional Weather Roundup
Issued by NWS

Home | Current Version | Previous Version | Text Only | Print | Product List | Glossary Off
Versions: 1 2 3 4 5 6 7 8 9 10 11 12 13 14 15 16 17 18 19 20 21 22 23 24 25 26 27 28 29 30 31 32 33 34 35 36 37 38 39 40 41 42 43 44 45 46 47 48 49 50

612
ASUS43 KIND 101909
RWRIN

WEATHER ROUNDUP FOR INDIANA
NATIONAL WEATHER SERVICE INDIANAPOLIS IN
200 PM EST SUN DEC 10 2017

NOTE: "FAIR" INDICATES FEW OR NO CLOUDS BELOW 12,000 FEET WITH NO
SIGNIFICANT WEATHER AND/OR OBSTRUCTIONS TO VISIBILITY.

* - STATION DOES NOT REPORT WEATHER SUCH AS PRECIPITATION OR FOG.

+ - STATION NOT QUALITY CONTROLLED BY THE NATIONAL WEATHER SERVICE.
    USE DATA WITH CAUTION...ESPECIALLY DEWPOINT AND RELATIVE
    HUMIDITY OBSERVATIONS.

INZ001>003-010>013-019-020-102000-
NORTHWEST INDIANA

CITY           SKY/WX    TMP DP  RH WIND       PRES   REMARKS
GARY /AIRPORT/ PTSUNNY   36  19  51 W15G29    29.88F WCI  26
KNOX *+        PTSUNNY   32  23  69 SW14G21   29.88F WCI  22
LA PORTE +     CLOUDY    31  21  66 SW9       29.88S WCI  23
MICHIGAN CITY+ CLOUDY    32  21  64 W10G20    29.88S WCI  24
MONTICELLO +   SUNNY     36  18  48 SW22      29.89F WCI  25
RENSSELAER +   MOSUNNY   37  18  44 SW20G26   29.88F WCI  27
VALPARAISO     PTSUNNY   35  22  58 W15G23    29.87F WCI  25

$$

LMZ046-743>745-102000-
SOUTHERN LAKE MICHIGAN

STATION/POSITION TIME  TEMP    WIND        PRES    WAVE
                       AIR SEA DIR/SP/G            HT
                 (UTC) (F)     (DEG/KT/KT) (MB)    (FT)
BURNS HARBOR     1840   34     260/ 14/ 19 1012.2F
MICHIGAN CITY    1840   32     250/ 20/ 22   N/A

$$

INZ004-005-014>016-021>024-102000-
NORTH CENTRAL INDIANA

CITY           SKY/WX    TMP DP  RH WIND       PRES   REMARKS
GOSHEN         CLOUDY    28  19  69 SW10      29.89S WCI  19
LOGANSPORT +   SUNNY     34  21  60 SW17      29.90F WCI  23
PERU/GRISSOM   SUNNY     34  21  59 SW18      29.89F WCI  23
ROCHESTER +    SUNNY     34  21  60 SW9       29.89F WCI  26
SOUTH BEND     CLOUDY    29  22  75 SW13      29.88F WCI  19
WARSAW +       SUNNY     32  19  59 SW12G17   29.89S WCI  23

$$

INZ006>009-017-018-025>027-102000-
NORTHEAST INDIANA

CITY           SKY/WX    TMP DP  RH WIND       PRES   REMARKS
AUBURN +       CLOUDY    32  19  59 SW8       29.89F WCI  25
FORT WAYNE     MOSUNNY   31  21  66 SW18      29.90F WCI  19
HUNTINGTON +   SUNNY     31  19  61 SW10G17   29.89F WCI  22
KENDALLVILLE + CLOUDY    29  19  66 SW13      29.88F WCI  19

$$

INZ028-029-035-036-043>045-051>053-102000-
WEST CENTRAL INDIANA

CITY           SKY/WX    TMP DP  RH WIND       PRES   REMARKS
CRAWFORDSVL +  SUNNY     35  20  55 SW18G30     N/A  WCI  24
GREENCASTLE +  MOSUNNY   36  19  51 SW6G16    29.94S WCI  31
LAFAYETTE      SUNNY     36  20  52 SW10G25   29.91F WCI  28
TERRE HAUTE    CLOUDY    38  20  48 SW16G22   29.96F WCI  29

$$

INZ030>032-037>040-046>048-054>057-064-065-102000-
CENTRAL INDIANA

CITY           SKY/WX    TMP DP  RH WIND       PRES   REMARKS
COLUMBUS       PTSUNNY   34  16  47 S15G25    29.98F WCI  24
FRANKFORT +    CLOUDY    38  21  49 SW20      29.93R WCI  29
GREENWOOD *+   MOSUNNY   36  22  56 S12G18    29.95F WCI  28
INDIANAPOLIS   PTSUNNY   35  19  52 S15       29.94F WCI  25
-EAGLE CREEK   MOSUNNY   35  17  47 S12       29.92F WCI  27
KOKOMO +       SUNNY     33  20  58 SW23      29.91F WCI  21
MARION +       SUNNY     31  21  65 SW15      29.91F WCI  21
MT COMFORT *+  CLOUDY    32  23  69 S17G23    29.93F WCI  21
SHELBYVILLE    MOSUNNY   34  17  50 S15G24    29.95F WCI  24
ZIONSVILLE +   MOSUNNY   33  18  55 S16G24    29.91F WCI  22

$$

INZ033-034-041-042-049-050-058-059-102000-
EAST CENTRAL INDIANA

CITY           SKY/WX    TMP DP  RH WIND       PRES   REMARKS
MUNCIE         SUNNY     32  18  56 SW15G26   29.91F WCI  22
RICHMOND +     CLOUDY    28  19  69 SW18G24   29.96F WCI  16

$$

INZ060-061-067>069-081>083-085>088-102000-
SOUTHWEST INDIANA

CITY           SKY/WX    TMP DP  RH WIND       PRES   REMARKS
EVANSVILLE     PTSUNNY   41  23  48 S17G29    30.04F
HUNTINGBURG +  MOSUNNY   39  23  52 S20G25    30.03F WCI  29
WASHINGTON +   PTSUNNY   38  20  49 S17       30.00F WCI  28

$$

INZ062-063-066-070>080-084-089>092-102000-
SOUTH CENTRAL AND SOUTHEAST INDIANA

CITY           SKY/WX    TMP DP  RH WIND       PRES   REMARKS
BEDFORD +      MOSUNNY   37  18  44 S13G22    29.99F WCI  29
BLOOMINGTON    CLOUDY    38  19  46 SW14G21   29.95F WCI  30
MADISON *+     MOSUNNY   34  19  55 S14G22    30.04F WCI  24
NORTH VERNON + CLOUDY    32  18  55 S16       30.00F WCI  21
SEYMOUR +      PTSUNNY   37  18  44 SW16      30.01F WCI  28

$$





USA.gov is the U.S. government's official web portal to all federal, state and local government web resources and services.